Location: ???????
(52.3000°N, 54.4667°E)
Time: 16:05:42
(UTC+00:00)

Cosmos 2297 Rocket - Pass Details

Date: 24 January 2020
Orbit: 838 x 845 km, 71.0° (Epoch: 19 February)

Event Time Altitude Azimuth Distance (km) Brightness Sun altitude
Rises 14:15:14 0° 195° (SSW) 3,383 5.8 -12.3°
Reaches altitude 10° 14:17:42 10° 191° (S) 2,453 5.0 -12.7°
Maximum altitude 14:23:12 58° 114° (ESE) 980 2.3 -13.5°
Enters shadow 14:28:18 12° 38° (NE) 2,305 4.0 -14.2°
